Main page
METAR-TAF:

METAR-TAF

Airports :

Henderson City-County Airport

Henderson, Kentucky, United States

latitude: 37-49N, longitude: 087-41W, elevation: 384 ft

Current weather observation

The report was made 10 minutes ago, at 12:56 UTC
Calm wind
Temperature 70°F
Humidity 100%
Pressure 29.97 in. Hg
Visibility: 10 miles
Few clouds at a height of 3500 ft

METAR: KEHR 171256Z AUTO 00000KT 10SM FEW035 21/21 A2997 RMK AO2 SLP144 P0001 T02110211

Time: 08:06 (13:06 UTC)


TAF: missing

Weather observations and forecasts of more than 4000 airports (METAR and TAF reports).

The available stations are represented by yellow and red dots on the map.

Hover mouse over dot to see the name of the station.

Then click to see weather observations and forecasts.

To change the map : click on the green buttons with a black cross to zoom in, on the green button with a dash to zoom out, or on the green arrows for adjacent maps.


METAR-TAF: